Fort Lauderdale, FL

3:05 AM EST on December 13, 2019 (GMT -0500)
Fort Lauderdale Executive

Weather History for KFXE - November, 2019

Change the Weather History Date:

Saturday, November 16, 2019

  Actual Average Record
Temperature  
Mean Temperature 67 °F -  
Max Temperature 72 °F 82 °F 89 °F (1951)
Min Temperature 62 °F 64 °F 48 °F (1969)
Cooling Degree Days 2    
Growing Degree Days 17 (Base 50)    
Moisture  
Dew Point 58 °F    
Average Humidity 76    
Maximum Humidity 93    
Minimum Humidity 55    
Precipitation  
Precipitation 0.00 in - - ()
Sea Level Pressure  
Sea Level Pressure 29.88 in    
Wind  
Wind Speed 8 mph ()    
Max Wind Speed 15 mph    
Max Gust Speed 23 mph    
Visibility 10.0 miles    
Events      
Averages and records for this station are not official NWS values.
T = Trace of Precipitation, MM = Missing Value Source: Averaged Metar Reports

Daily Weather History Graph

Daily Weather History Graph

Search for Another Location

Airport or City:

Astronomy

Nov. 16, 2019 Rise Set
Actual Time 6:39 AM EST 5:30 PM EST
Civil Twilight 6:15 AM EST 5:55 PM EST
Nautical Twilight 5:47 AM EST 6:23 PM EST
Astronomical Twilight 5:19 AM EST 6:50 PM EST
Moon 9:11 PM EST (11/16) 10:22 AM EST (11/16)
Length of Visible Light 11h 39m
Length of Day
10h 50m
Waning Gibbous, 82% of the Moon is Illuminated
Nov 16
Waning Gibbous
Nov 19
Last Quarter
Nov 26
New
Dec 4
First Quarter
Dec 12
Full

Hourly Weather History & Observations

Time (EST) Temp. Dew Point Humidity Pressure Visibility Wind Dir Wind Speed Gust Speed Precip Events Conditions
12:53 AM 66.9 °F 64.9 °F 93% 29.88 in 10.0 mi WNW 5.8 mph - N/A   Overcast
1:19 AM 66.9 °F 64.9 °F 93% 29.88 in 10.0 mi WNW 6.9 mph - N/A   Overcast
1:53 AM 66.9 °F 64.0 °F 90% 29.87 in 10.0 mi WNW 10.4 mph - N/A   Scattered Clouds
2:53 AM 64.9 °F 63.0 °F 93% 29.87 in 10.0 mi WNW 8.1 mph - N/A   Mostly Cloudy
3:53 AM 64.9 °F 61.0 °F 87% 29.87 in 10.0 mi WNW 10.4 mph - N/A   Overcast
5:53 AM 63.0 °F 59.0 °F 87% 29.88 in 10.0 mi WNW 9.2 mph 17.3 mph N/A   Overcast
6:53 AM 63.0 °F 57.9 °F 84% 29.90 in 10.0 mi NW 9.2 mph - N/A   Overcast
8:53 AM 63.0 °F 57.9 °F 84% 29.93 in 10.0 mi WNW 6.9 mph - N/A   Scattered Clouds
9:53 AM 68.0 °F 55.9 °F 65% 29.93 in 10.0 mi NW 8.1 mph 18.4 mph N/A   Partly Cloudy
10:53 AM 70.0 °F 55.9 °F 61% 29.90 in 10.0 mi WNW 15.0 mph 21.9 mph N/A   Clear
11:53 AM 72.0 °F 55.9 °F 57% 29.87 in 10.0 mi WNW 11.5 mph - N/A   Scattered Clouds
12:53 PM 72.0 °F 55.0 °F 55% 29.84 in 10.0 mi WNW 12.7 mph 23.0 mph N/A   Scattered Clouds
1:53 PM 72.0 °F 57.0 °F 59% 29.83 in 10.0 mi WNW 11.5 mph 23.0 mph N/A   Overcast
2:53 PM 72.0 °F 55.9 °F 57% 29.82 in 10.0 mi WNW 15.0 mph 20.7 mph N/A   Scattered Clouds
4:53 PM 68.0 °F 55.9 °F 65% 29.83 in 10.0 mi NW 8.1 mph - N/A   Partly Cloudy
5:53 PM 66.0 °F 55.0 °F 68% 29.84 in 10.0 mi NW 6.9 mph - N/A   Clear
6:53 PM 64.9 °F 55.0 °F 70% 29.85 in 10.0 mi NW 6.9 mph - N/A   Clear
7:53 PM 64.0 °F 55.0 °F 73% 29.87 in 10.0 mi NNW 5.8 mph - N/A   Clear
8:53 PM 63.0 °F 55.9 °F 78% 29.90 in 10.0 mi NNW 6.9 mph - N/A   Scattered Clouds
9:53 PM 62.1 °F 55.9 °F 80% 29.91 in 10.0 mi NNW 5.8 mph - N/A   Scattered Clouds
10:53 PM 62.1 °F 55.9 °F 80% 29.91 in 10.0 mi NW 6.9 mph - N/A   Mostly Cloudy
11:00 PM 62.1 °F 55.9 °F 80% 29.90 in 10.0 mi WNW 8.1 mph - N/A   Mostly Cloudy
11:53 PM 62.1 °F 55.9 °F 80% 29.89 in 10.0 mi NNW 8.1 mph - N/A   Overcast